Time,TemperatureF,DewpointF,PressureIn,WindDirection,WindDirectionDegrees,WindSpeedMPH,WindSpeedGustMPH,Humidity,HourlyPrecipIn,Conditions,Clouds,dailyrainin,SoftwareType,DateUTC
2013-06-03 00:03:00,49.6,40.0,30.01,South,191,0.0,5.0,70,0.00,,,0.00,weatherlink.com 1.10,2013-06-03 05:03:00,
2013-06-03 00:18:00,50.2,42.0,30.01,SSE,166,0.0,1.0,74,0.00,,,0.00,weatherlink.com 1.10,2013-06-03 05:18:00,
2013-06-03 00:33:00,48.1,41.0,30.01,South,186,1.0,3.0,75,0.00,,,0.00,weatherlink.com 1.10,2013-06-03 05:33:00,
2013-06-03 01:03:00,47.6,40.0,30.01,SSE,165,0.0,1.0,76,0.00,,,0.00,weatherlink.com 1.10,2013-06-03 06:03:00,
2013-06-03 01:18:00,47.3,42.0,30.01,SSE,163,0.0,1.0,81,0.00,,,0.00,weatherlink.com 1.10,2013-06-03 06:18:00,
2013-06-03 01:33:00,47.5,41.0,30.01,SSE,163,0.0,0.0,79,0.00,,,0.00,weatherlink.com 1.10,2013-06-03 06:33:00,
2013-06-03 01:49:00,46.1,41.0,30.00,SSE,163,0.0,0.0,82,0.00,,,0.00,weatherlink.com 1.10,2013-06-03 06:49:00,
2013-06-03 02:04:00,45.1,41.0,30.00,SSE,164,0.0,0.0,84,0.00,,,0.00,weatherlink.com 1.10,2013-06-03 07:04:00,
2013-06-03 02:19:00,45.8,41.0,30.00,SSE,163,0.0,0.0,83,0.00,,,0.00,weatherlink.com 1.10,2013-06-03 07:19:00,
2013-06-03 02:34:00,44.8,41.0,30.00,SSE,163,0.0,0.0,86,0.00,,,0.00,weatherlink.com 1.10,2013-06-03 07:34:00,
2013-06-03 02:49:00,44.8,42.0,30.00,SSE,164,0.0,1.0,88,0.00,,,0.00,weatherlink.com 1.10,2013-06-03 07:49:00,
2013-06-03 03:04:00,44.2,42.0,30.00,SSE,163,0.0,0.0,90,0.00,,,0.00,weatherlink.com 1.10,2013-06-03 08:04:00,
2013-06-03 03:19:00,43.3,41.0,30.00,SSE,164,0.0,0.0,92,0.00,,,0.00,weatherlink.com 1.10,2013-06-03 08:19:00,
2013-06-03 03:34:00,43.2,41.0,30.00,SSE,166,0.0,1.0,92,0.00,,,0.00,weatherlink.com 1.10,2013-06-03 08:34:00,
2013-06-03 03:49:00,42.5,40.0,30.00,SSE,166,0.0,0.0,92,0.00,,,0.00,weatherlink.com 1.10,2013-06-03 08:49:00,
2013-06-03 04:04:00,42.7,41.0,30.00,SSE,166,0.0,0.0,94,0.00,,,0.00,weatherlink.com 1.10,2013-06-03 09:04:00,
2013-06-03 04:19:00,42.6,41.0,29.99,SSE,167,0.0,0.0,94,0.00,,,0.00,weatherlink.com 1.10,2013-06-03 09:19:00,
2013-06-03 04:34:00,42.2,41.0,30.00,SSE,167,0.0,0.0,94,0.00,,,0.00,weatherlink.com 1.10,2013-06-03 09:34:00,
2013-06-03 04:49:00,43.7,42.0,30.00,SSE,166,0.0,1.0,93,0.00,,,0.00,weatherlink.com 1.10,2013-06-03 09:49:00,
2013-06-03 05:04:00,42.9,41.0,30.00,SSE,167,0.0,0.0,93,0.00,,,0.00,weatherlink.com 1.10,2013-06-03 10:04:00,
2013-06-03 05:19:00,44.2,42.0,30.01,ESE,106,0.0,1.0,91,0.00,,,0.00,weatherlink.com 1.10,2013-06-03 10:19:00,
2013-06-03 05:34:00,43.7,41.0,30.01,ESE,106,0.0,1.0,91,0.00,,,0.00,weatherlink.com 1.10,2013-06-03 10:34:00,
2013-06-03 05:49:00,44.2,42.0,30.02,South,177,0.0,2.0,92,0.00,,,0.00,weatherlink.com 1.10,2013-06-03 10:49:00,
2013-06-03 06:04:00,45.5,43.0,30.02,SE,124,0.0,1.0,90,0.00,,,0.00,weatherlink.com 1.10,2013-06-03 11:04:00,
2013-06-03 06:19:00,47.3,44.0,30.02,ESE,117,0.0,1.0,87,0.00,,,0.00,weatherlink.com 1.10,2013-06-03 11:19:00,
2013-06-03 06:34:00,49.4,44.0,30.02,ESE,117,0.0,1.0,82,0.00,,,0.00,weatherlink.com 1.10,2013-06-03 11:34:00,
2013-06-03 06:49:00,50.9,45.0,30.03,ESE,120,0.0,1.0,80,0.00,,,0.00,weatherlink.com 1.10,2013-06-03 11:49:00,
2013-06-03 07:04:00,50.8,46.0,30.03,South,181,1.0,3.0,84,0.00,,,0.00,weatherlink.com 1.10,2013-06-03 12:04:00,
2013-06-03 07:20:00,51.6,46.0,30.03,SW,217,3.0,4.0,82,0.00,,,0.00,weatherlink.com 1.10,2013-06-03 12:20:00,
2013-06-03 07:34:00,53.7,48.0,30.04,SE,127,2.0,3.0,81,0.00,,,0.00,weatherlink.com 1.10,2013-06-03 12:34:00,
2013-06-03 07:49:00,55.3,48.0,30.03,SSE,149,5.0,8.0,75,0.00,,,0.00,weatherlink.com 1.10,2013-06-03 12:49:00,
2013-06-03 08:04:00,56.8,47.0,30.02,SSE,163,7.0,11.0,69,0.00,,,0.00,weatherlink.com 1.10,2013-06-03 13:04:00,
2013-06-03 08:19:00,58.0,48.0,30.02,SW,219,8.0,10.0,69,0.00,,,0.00,weatherlink.com 1.10,2013-06-03 13:19:00,
2013-06-03 08:34:00,58.1,48.0,30.02,South,187,9.0,15.0,69,0.00,,,0.00,weatherlink.com 1.10,2013-06-03 13:34:00,
2013-06-03 08:49:00,58.8,47.0,30.01,South,190,9.0,14.0,65,0.00,,,0.00,weatherlink.com 1.10,2013-06-03 13:49:00,
2013-06-03 09:05:00,60.0,48.0,30.01,SSE,166,6.0,15.0,64,0.00,,,0.00,weatherlink.com 1.10,2013-06-03 14:05:00,
2013-06-03 09:20:00,60.9,48.0,30.00,SSW,198,7.0,11.0,63,0.00,,,0.00,weatherlink.com 1.10,2013-06-03 14:20:00,
2013-06-03 09:35:00,61.9,47.0,30.00,SW,221,10.0,13.0,58,0.00,,,0.00,weatherlink.com 1.10,2013-06-03 14:35:00,
2013-06-03 09:50:00,62.2,46.0,30.00,SSE,159,13.0,16.0,55,0.00,,,0.00,weatherlink.com 1.10,2013-06-03 14:50:00,
2013-06-03 10:05:00,62.6,46.0,30.01,SSE,151,8.0,16.0,54,0.00,,,0.00,weatherlink.com 1.10,2013-06-03 15:05:00,
2013-06-03 10:20:00,63.0,45.0,30.01,SE,146,9.0,13.0,53,0.00,,,0.00,weatherlink.com 1.10,2013-06-03 15:20:00,
2013-06-03 10:35:00,63.4,46.0,30.01,SSE,151,8.0,15.0,53,0.00,,,0.00,weatherlink.com 1.10,2013-06-03 15:35:00,
2013-06-03 10:50:00,64.6,45.0,30.01,SSE,148,10.0,12.0,49,0.00,,,0.00,weatherlink.com 1.10,2013-06-03 15:50:00,
2013-06-03 11:05:00,64.0,43.0,30.00,SE,131,6.0,15.0,47,0.00,,,0.00,weatherlink.com 1.10,2013-06-03 16:05:00,
2013-06-03 11:20:00,63.3,43.0,30.00,ESE,102,11.0,17.0,48,0.00,,,0.00,weatherlink.com 1.10,2013-06-03 16:20:00,
2013-06-03 11:35:00,63.2,45.0,29.99,SSE,159,9.0,16.0,51,0.00,,,0.00,weatherlink.com 1.10,2013-06-03 16:35:00,
2013-06-03 11:50:00,63.6,43.0,29.98,East,94,5.0,17.0,47,0.00,,,0.00,weatherlink.com 1.10,2013-06-03 16:50:00,
2013-06-03 12:05:00,64.3,43.0,29.97,East,91,10.0,18.0,47,0.00,,,0.00,weatherlink.com 1.10,2013-06-03 17:05:00,
2013-06-03 12:20:00,64.5,43.0,29.96,East,79,5.0,19.0,46,0.00,,,0.00,weatherlink.com 1.10,2013-06-03 17:20:00,
2013-06-03 12:35:00,64.2,43.0,29.96,ESE,121,10.0,22.0,47,0.00,,,0.00,weatherlink.com 1.10,2013-06-03 17:35:00,
2013-06-03 12:50:00,64.7,45.0,29.95,SE,140,13.0,22.0,49,0.00,,,0.00,weatherlink.com 1.10,2013-06-03 17:50:00,
2013-06-03 13:05:00,65.8,45.0,29.95,SE,128,9.0,18.0,48,0.00,,,0.00,weatherlink.com 1.10,2013-06-03 18:05:00,
2013-06-03 13:20:00,66.3,44.0,29.95,ENE,75,8.0,23.0,45,0.00,,,0.00,weatherlink.com 1.10,2013-06-03 18:20:00,
2013-06-03 13:35:00,66.6,43.0,29.95,SSE,168,15.0,23.0,43,0.00,,,0.00,weatherlink.com 1.10,2013-06-03 18:35:00,
2013-06-03 13:50:00,67.7,45.0,29.95,SE,126,12.0,24.0,44,0.00,,,0.00,weatherlink.com 1.10,2013-06-03 18:50:00,
2013-06-03 14:05:00,67.9,44.0,29.94,ENE,60,12.0,25.0,42,0.00,,,0.00,weatherlink.com 1.10,2013-06-03 19:05:00,
2013-06-03 14:20:00,68.2,45.0,29.92,ENE,67,16.0,22.0,43,0.00,,,0.00,weatherlink.com 1.10,2013-06-03 19:20:00,
2013-06-03 14:35:00,68.8,44.0,29.92,SE,141,9.0,26.0,41,0.00,,,0.00,weatherlink.com 1.10,2013-06-03 19:35:00,
2013-06-03 14:50:00,68.8,44.0,29.91,East,101,12.0,27.0,41,0.00,,,0.00,weatherlink.com 1.10,2013-06-03 19:50:00,
2013-06-03 15:05:00,69.1,45.0,29.91,ESE,114,12.0,24.0,42,0.00,,,0.00,weatherlink.com 1.10,2013-06-03 20:05:00,
2013-06-03 15:21:00,69.3,46.0,29.91,ESE,105,14.0,25.0,43,0.00,,,0.00,weatherlink.com 1.10,2013-06-03 20:21:00,
2013-06-03 15:35:00,69.6,46.0,29.90,ESE,106,17.0,23.0,43,0.00,,,0.00,weatherlink.com 1.10,2013-06-03 20:35:00,
2013-06-03 15:50:00,70.5,46.0,29.90,SE,130,10.0,25.0,42,0.00,,,0.00,weatherlink.com 1.10,2013-06-03 20:50:00,
2013-06-03 16:05:00,70.0,45.0,29.89,East,96,8.0,26.0,41,0.00,,,0.00,weatherlink.com 1.10,2013-06-03 21:05:00,
2013-06-03 16:20:00,70.2,46.0,29.89,East,98,13.0,25.0,42,0.00,,,0.00,weatherlink.com 1.10,2013-06-03 21:20:00,
2013-06-03 16:36:00,70.6,44.0,29.88,East,101,9.0,19.0,39,0.00,,,0.00,weatherlink.com 1.10,2013-06-03 21:36:00,
2013-06-03 16:51:00,70.5,44.0,29.87,SSE,148,18.0,28.0,39,0.00,,,0.00,weatherlink.com 1.10,2013-06-03 21:51:00,
2013-06-03 17:06:00,70.5,45.0,29.87,ENE,71,11.0,26.0,40,0.00,,,0.00,weatherlink.com 1.10,2013-06-03 22:06:00,
2013-06-03 17:21:00,70.3,45.0,29.86,ESE,104,10.0,24.0,41,0.00,,,0.00,weatherlink.com 1.10,2013-06-03 22:21:00,
2013-06-03 17:36:00,70.3,45.0,29.85,ESE,102,13.0,28.0,41,0.00,,,0.00,weatherlink.com 1.10,2013-06-03 22:36:00,
2013-06-03 17:51:00,70.3,47.0,29.86,SE,139,13.0,25.0,43,0.00,,,0.00,weatherlink.com 1.10,2013-06-03 22:51:00,
2013-06-03 18:06:00,70.2,47.0,29.86,SE,141,15.0,29.0,43,0.00,,,0.00,weatherlink.com 1.10,2013-06-03 23:06:00,
2013-06-03 18:21:00,70.0,46.0,29.85,ESE,106,14.0,31.0,43,0.00,,,0.00,weatherlink.com 1.10,2013-06-03 23:21:00,
2013-06-03 18:36:00,69.8,47.0,29.85,ENE,76,17.0,27.0,44,0.00,,,0.00,weatherlink.com 1.10,2013-06-03 23:36:00,
2013-06-03 18:51:00,69.6,47.0,29.85,SE,138,10.0,28.0,44,0.00,,,0.00,weatherlink.com 1.10,2013-06-03 23:51:00,
2013-06-03 19:06:00,69.4,46.0,29.86,SE,144,21.0,27.0,44,0.00,,,0.00,weatherlink.com 1.10,2013-06-04 00:06:00,
2013-06-03 19:21:00,69.0,46.0,29.86,SE,146,12.0,29.0,44,0.00,,,0.00,weatherlink.com 1.10,2013-06-04 00:21:00,
2013-06-03 19:36:00,68.8,46.0,29.86,ESE,117,11.0,22.0,45,0.00,,,0.00,weatherlink.com 1.10,2013-06-04 00:36:00,
2013-06-03 20:21:00,66.9,46.0,29.88,ESE,119,14.0,21.0,47,0.00,,,0.00,weatherlink.com 1.10,2013-06-04 01:21:00,
2013-06-03 20:36:00,66.4,45.0,29.89,SSE,151,10.0,18.0,47,0.00,,,0.00,weatherlink.com 1.10,2013-06-04 01:36:00,
2013-06-03 20:51:00,65.7,46.0,29.89,SE,146,9.0,12.0,49,0.00,,,0.00,weatherlink.com 1.10,2013-06-04 01:51:00,
2013-06-03 21:21:00,64.6,47.0,29.89,East,94,10.0,15.0,54,0.00,,,0.00,weatherlink.com 1.10,2013-06-04 02:21:00,
2013-06-03 21:36:00,64.4,47.0,29.90,ESE,113,8.0,14.0,54,0.00,,,0.00,weatherlink.com 1.10,2013-06-04 02:36:00,
2013-06-03 21:51:00,64.4,47.0,29.91,SE,143,7.0,16.0,54,0.00,,,0.00,weatherlink.com 1.10,2013-06-04 02:51:00,
2013-06-03 22:06:00,64.3,48.0,29.91,East,82,13.0,17.0,55,0.00,,,0.00,weatherlink.com 1.10,2013-06-04 03:06:00,
2013-06-03 22:21:00,64.1,47.0,29.92,South,181,6.0,17.0,55,0.00,,,0.00,weatherlink.com 1.10,2013-06-04 03:21:00,
2013-06-03 22:36:00,63.9,48.0,29.93,ESE,110,6.0,13.0,56,0.00,,,0.00,weatherlink.com 1.10,2013-06-04 03:36:00,
2013-06-03 22:51:00,63.6,48.0,29.92,SE,145,3.0,12.0,57,0.00,,,0.00,weatherlink.com 1.10,2013-06-04 03:51:00,
2013-06-03 23:06:00,63.5,48.0,29.92,SE,137,6.0,11.0,58,0.00,,,0.00,weatherlink.com 1.10,2013-06-04 04:06:00,
2013-06-03 23:21:00,63.3,48.0,29.91,South,186,4.0,16.0,58,0.00,,,0.00,weatherlink.com 1.10,2013-06-04 04:21:00,
2013-06-03 23:36:00,63.2,48.0,29.91,SSE,164,8.0,17.0,59,0.00,,,0.00,weatherlink.com 1.10,2013-06-04 04:36:00,
2013-06-03 23:51:00,63.0,48.0,29.91,SE,125,8.0,16.0,59,0.00,,,0.00,weatherlink.com 1.10,2013-06-04 04:51:00,